[[{"header":{"parameterUnit":"m.s-1","parameterCategory":1,"la1":30.2992,"la2":30.254,"lo1":-89.0895,"lo2":-89.0443,"dy":0.0025,"dx":0.0025,"nx":19,"ny":19,"refTime":"2026-04-03T21:00:00:Z","depth":0,"parameterNumber":2,"parameterNumberName":"U-component_of_WINDS"},"data":[0,0,0,-3.3474,-3.3476,-3.3545,-3.3545,-3.3641,-3.3642,0,0,0,0,0,0,0,0,0,0,0,-3.3458,-3.3459,-3.3474,-3.3476,-3.3545,-3.3545,-3.3641,-3.3642,0,0,0,0,0,0,0,0,0,0,0,-3.3458,-3.3459,-3.346,-3.3476,-3.3545,-3.3545,-3.364,-3.3586,0,0,0,0,0,0,0,0,0,0,-3.3518,-3.3507,-3.3459,-3.346,-3.3477,-3.3545,-3.3545,-3.3583,-3.3589,-3.3613,0,-3.3635,0,-3.364,-3.3649,-3.3649,0,0,0,-3.3473,-3.3502,-3.3517,-3.346,-3.3477,-3.3544,-3.3513,-3.3586,-3.3593,-3.3621,-3.3636,-3.364,-3.3642,-3.3649,-3.365,-3.3798,-3.3799,0,0,-3.3469,-3.3473,-3.3512,-3.3521,-3.3511,-3.3511,-3.3515,-3.3591,-3.3607,-3.3637,-3.3642,-3.3643,-3.365,-3.3651,-3.3797,-3.3798,0,0,0,-3.346,-3.347,-3.3483,-3.3518,-3.3529,-3.3513,-3.3518,-3.3604,-3.3608,-3.3643,-3.3644,-3.3651,-3.3652,-3.3796,-3.3798,-3.3842,0,0,0,-3.3458,-3.3465,-3.3481,-3.3484,-3.3528,-3.3567,-3.3529,-3.3602,-3.3611,-3.3644,-3.3651,-3.3653,-3.3795,-3.3797,-3.3838,-3.3861,0,0,0,-3.3452,-3.3464,-3.3476,-3.3484,-3.3514,-3.3566,-3.3574,-3.3604,-3.3612,-3.3649,-3.3653,-3.3795,-3.3797,-3.3836,-3.3856,-3.39,0,0,0,-3.3447,-3.3513,-3.3477,-3.3552,-3.3514,-3.3593,-3.3573,-3.3633,-3.367,-3.3651,-3.3796,-3.3798,-3.3835,-3.3853,-3.3897,-3.3936,-3.3953,0,0,-3.3533,-3.3524,-3.3568,-3.3537,-3.3624,-3.3583,-3.3677,-3.3707,-3.3708,-3.3768,-3.3772,-3.3839,-3.3856,-3.3899,-3.4052,-3.4066,0,0,0,-3.3596,-3.3628,-3.365,-3.3686,-3.3713,-3.3737,-3.3753,-3.3765,-3.3816,-3.374,-3.3869,-3.3878,-3.3904,-3.3922,-3.3933,-3.3954,-3.3807,-3.3807,-3.3807,-3.372,-3.3718,-3.3792,-3.3799,-3.3835,-3.3853,-3.3881,-3.3901,-3.3888,-3.3919,-3.3935,-3.4028,-3.405,-3.4059,-3.4081,-3.3958,-3.3958,-3.3959,-3.3959,-3.3843,-3.3887,-3.3872,-3.3936,-3.3935,-3.399,-3.4012,-3.4001,-3.4052,-3.4015,-3.4037,-3.3994,-3.4074,-3.4093,-3.3962,-3.3961,-3.3961,-3.3961,-3.396,-3.3921,-3.3942,-3.3957,-3.4011,-3.4053,-3.4059,-3.411,-3.4107,-3.4106,-3.4128,-3.4145,-3.4144,-3.4141,-3.4137,-3.4138,-3.4138,-3.4138,-3.4138,-3.4139,-3.3995,-3.4011,-3.4053,-3.4089,-3.4113,-3.4145,-3.4167,-3.419,-3.4216,-3.421,-3.4211,-3.4194,-3.4083,-3.4053,-3.4143,-3.4143,-3.4142,-3.4141,-3.4141,-3.4115,-3.4088,-3.4154,-3.4178,-3.4221,-3.4264,-3.4262,-3.4312,-3.4332,-3.4357,-3.4338,-3.4257,-3.4247,-3.4238,-3.4213,-3.4339,-3.4339,-3.4339,-3.4339,-3.4179,-3.4175,-3.4242,-3.4282,-3.432,-3.4326,-3.4402,-3.4421,-3.4437,-3.4449,-3.4432,-3.44,-3.4391,-3.4387,-3.4374,-3.4351,-3.4509,-3.4509,-3.451,-3.4252,-3.4252,-3.4315,-3.4331,-3.4366,-3.4396,-3.4467,-3.4514,-3.4526,-3.4516,-3.4459,-3.4452,-3.4401,-3.4385,-3.4368,-3.4349,-3.4306,0,0]},{"header":{"parameterUnit":"m.s-1","parameterCategory":1,"la1":30.2992,"la2":30.254,"lo1":-89.0895,"lo2":-89.0443,"dy":0.0025,"dx":0.0025,"nx":19,"ny":19,"refTime":"2026-04-03T21:00:00:Z","depth":0,"parameterNumber":3,"parameterNumberName":"V-component_of_WINDS"},"data":[0,0,0,2.8899,2.89,2.8949,2.895,2.8992,2.8993,0,0,0,0,0,0,0,0,0,0,0,2.8873,2.8873,2.8899,2.89,2.8949,2.895,2.8992,2.8993,0,0,0,0,0,0,0,0,0,0,0,2.8873,2.8873,2.8872,2.89,2.8949,2.895,2.8992,2.8962,0,0,0,0,0,0,0,0,0,0,2.8917,2.8882,2.8873,2.8872,2.89,2.8949,2.895,2.8961,2.8964,2.8961,0,2.8957,0,2.8976,2.8994,2.8994,0,0,0,2.8908,2.8879,2.8903,2.8872,2.89,2.8949,2.8929,2.8963,2.8966,2.8965,2.8958,2.896,2.8976,2.8994,2.8995,2.8957,2.8957,0,0,2.8905,2.8875,2.8901,2.8905,2.8897,2.8928,2.8931,2.8965,2.8955,2.8958,2.8961,2.8977,2.8995,2.8995,2.8958,2.8957,0,0,0,2.8892,2.8872,2.8896,2.8903,2.8913,2.8929,2.8932,2.8953,2.8964,2.8962,2.8978,2.8995,2.8995,2.8959,2.8958,2.8902,0,0,0,2.889,2.8865,2.8895,2.8877,2.8912,2.8934,2.8919,2.8961,2.8966,2.8977,2.8995,2.8995,2.8959,2.8958,2.8905,2.888,0,0,0,2.8873,2.8863,2.8867,2.8875,2.8896,2.8934,2.8947,2.8963,2.8975,2.8994,2.8995,2.896,2.8958,2.8908,2.8885,2.8863,0,0,0,2.8846,2.8815,2.8865,2.8837,2.8895,2.89,2.8947,2.8952,2.8962,2.8995,2.8959,2.8958,2.8908,2.8887,2.8865,2.8838,2.8825,0,0,2.879,2.8807,2.8793,2.8839,2.8828,2.8895,2.8875,2.8912,2.894,2.895,2.8949,2.8904,2.8885,2.8863,2.8757,2.8746,0,0,0,2.8765,2.8754,2.8758,2.8767,2.8796,2.8818,2.8862,2.8876,2.8886,2.8939,2.8891,2.888,2.8869,2.8857,2.8848,2.884,2.8951,2.8951,2.8951,2.8641,2.8682,2.8661,2.8707,2.8715,2.8762,2.8772,2.8798,2.8834,2.8822,2.8825,2.8757,2.8742,2.8735,2.8726,2.8815,2.8814,2.8814,2.8814,2.8563,2.8555,2.8606,2.8605,2.8647,2.8646,2.8689,2.8715,2.8719,2.8757,2.8749,2.8787,2.8722,2.8716,2.881,2.8811,2.8811,2.8812,2.8812,2.8487,2.849,2.8509,2.8528,2.8538,2.8585,2.8588,2.8626,2.8661,2.8653,2.8661,2.8662,2.8668,2.8654,2.8654,2.8654,2.8653,2.8653,2.8653,2.8401,2.8424,2.8422,2.8452,2.8464,2.8484,2.8531,2.8543,2.8566,2.8593,2.8593,2.8631,2.8708,2.8727,2.865,2.865,2.8651,2.8651,2.8651,2.8307,2.8335,2.8332,2.8344,2.8382,2.839,2.8439,2.8461,2.8476,2.8476,2.8516,2.8567,2.8587,2.8595,2.861,2.8508,2.8508,2.8508,2.8508,2.8243,2.8257,2.8264,2.8281,2.8302,2.8346,2.8342,2.8378,2.8419,2.8431,2.8452,2.8476,2.8482,2.8498,2.8508,2.8524,2.8401,2.8401,2.8401,2.8187,2.8206,2.8195,2.8238,2.8271,2.8298,2.8296,2.8312,2.8364,2.8397,2.8442,2.8446,2.8486,2.8496,2.8529,2.8544,2.8573,0,0]}]]